N5VKM Weather Reports


Display with metric or nautical units.
time (UTC)temp
F
wind
direction
speed
MPH
gust
MPH
rain 1hr
in
rain 24hr
in
rain mn
in
humidity
%
barometer
mb
20260506124037 52 360 0.0 0.0 0.00 0.00 0.00 86 1013.3
20260506123527 52 340 0.0 0.0 0.00 0.00 0.00 86 1013.4
20260506123036 52 340 0.0 0.0 0.00 0.00 0.00 87 1013.4
20260506122609 52 333 0.0 0.0 0.00 0.00 0.00 87 1013.2
20260506122042 52 333 0.0 0.0 0.00 0.00 0.00 87 1013.2
20260506121535 52 340 0.0 0.0 0.00 0.00 0.00 87 1013.2
20260506121046 52 336 0.0 0.0 0.00 0.00 0.00 87 1013.2
20260506120533 52 334 0.0 0.0 0.00 0.00 0.00 87 1013.0
20260506120040 52 333 0.0 0.0 0.00 0.00 0.00 87 1013.0
20260506115533 52 333 0.0 0.0 0.00 0.00 0.00 87 1012.8
20260506115033 53 336 0.0 0.0 0.00 0.00 0.00 86 1012.9
20260506114547 53 333 0.0 0.0 0.00 0.00 0.00 86 1012.6
20260506114040 53 333 0.0 0.0 0.00 0.00 0.00 85 1012.5
20260506113531 53 360 0.0 0.0 0.00 0.00 0.00 84 1012.4
20260506113043 53 335 0.0 0.0 0.00 0.00 0.00 84 1012.5
20260506112532 53 334 0.0 0.0 0.00 0.00 0.00 84 1012.5
20260506112046 54 333 0.0 0.0 0.00 0.00 0.00 83 1012.4
20260506111600 54 340 0.0 0.0 0.00 0.00 0.00 83 1012.4
20260506111031 54 333 0.0 0.0 0.00 0.00 0.00 83 1012.2
20260506110542 54 333 0.0 0.0 0.00 0.00 0.00 83 1012.1
20260506110030 54 333 0.0 0.0 0.00 0.00 0.00 82 1012.2
20260506105539 54 360 0.0 0.0 0.00 0.00 0.00 82 1012.2
20260506105030 54 335 0.0 0.0 0.00 0.00 0.00 81 1012.0
20260506104537 54 333 0.0 0.0 0.00 0.00 0.00 81 1011.9
20260506104043 54 333 0.0 0.0 0.00 0.00 0.00 81 1011.8
20260506103550 54 333 0.0 0.0 0.00 0.00 0.00 81 1011.8
20260506103037 54 340 0.0 0.0 0.00 0.00 0.00 80 1011.7
20260506102551 54 340 0.0 0.0 0.00 0.00 0.00 80 1011.5
20260506102037 54 333 0.0 0.0 0.00 0.00 0.00 80 1011.4
20260506101551 54 332 0.0 0.0 0.00 0.00 0.00 79 1011.3
20260506101038 54 340 0.0 0.0 0.00 0.00 0.00 79 1011.2
20260506100529 54 333 0.0 0.0 0.00 0.00 0.00 79 1011.2
20260506100041 54 338 0.0 0.0 0.00 0.00 0.00 79 1011.1
20260506095548 54 360 0.0 0.0 0.00 0.00 0.00 79 1011.1
20260506095034 54 333 0.0 0.0 0.00 0.00 0.00 79 1011.2
20260506094542 54 334 0.0 0.0 0.00 0.00 0.00 79 1011.0
20260506094036 54 360 0.0 0.0 0.00 0.00 0.00 79 1011.0
20260506093549 55 336 0.0 0.0 0.00 0.00 0.00 79 1011.0
20260506093041 55 333 0.0 0.0 0.00 0.00 0.00 79 1011.0
20260506092532 55 333 0.0 0.0 0.00 0.00 0.00 78 1010.9
20260506092040 55 333 0.0 0.0 0.00 0.00 0.00 79 1010.9
20260506091546 55 333 0.0 0.0 0.00 0.00 0.00 79 1010.8
20260506091037 55 360 0.0 0.0 0.00 0.00 0.00 78 1010.5
20260506090548 56 336 0.0 0.0 0.00 0.00 0.00 78 1010.6
20260506090041 56 332 0.0 0.0 0.00 0.00 0.00 78 1010.4
20260506085531 56 360 0.0 0.0 0.00 0.00 0.00 78 1010.5
20260506085039 56 332 0.0 0.0 0.00 0.00 0.00 78 1010.4
20260506084548 56 334 0.0 0.0 0.00 0.00 0.00 78 1010.5
20260506084039 56 333 0.0 0.0 0.00 0.00 0.00 78 1010.5
20260506083546 56 360 0.0 0.0 0.00 0.00 0.00 78 1010.3
20260506083037 56 340 0.0 0.0 0.00 0.00 0.00 77 1010.2
20260506082543 56 340 0.0 0.0 0.00 0.00 0.00 77 1010.4
20260506082039 56 333 0.0 0.0 0.00 0.00 0.00 77 1010.5
20260506081545 56 333 0.0 0.0 0.00 0.00 0.00 77 1010.4
20260506081036 56 332 0.0 0.0 0.00 0.00 0.00 77 1010.1
20260506080530 56 333 0.0 0.0 0.00 0.00 0.00 77 1010.0
20260506073046 57 335 0.0 0.0 0.00 0.00 0.00 78 1009.9
20260506072534 57 332 0.0 0.0 0.00 0.00 0.00 78 1009.9
20260506072027 57 333 0.0 0.0 0.00 0.00 0.00 78 1009.8
20260506071601 57 339 0.0 0.0 0.00 0.00 0.00 78 1010.0
20260506071028 57 333 0.0 0.0 0.00 0.00 0.00 78 1010.0
20260506070539 57 340 0.0 0.0 0.00 0.00 0.00 78 1010.0
20260506062033 57 332 0.0 0.0 0.00 0.00 0.00 79 1010.3
20260506061546 58 332 0.0 0.0 0.00 0.00 0.00 79 1010.2
20260506061037 58 332 0.0 0.0 0.00 0.00 0.00 79 1010.1
20260506060548 58 334 0.0 0.0 0.00 0.00 0.00 79 1010.1
20260506051035 59 333 0.0 0.0 0.00 0.00 0.00 80 1010.1
20260506050542 59 340 0.0 0.0 0.00 0.00 0.00 80 1010.1
20260506045030 60 333 0.0 0.0 0.00 0.00 0.00 80 1010.0
20260506044603 60 334 0.0 0.0 0.00 0.00 0.00 80 1010.0
20260506044035 60 340 0.0 0.0 0.00 0.00 0.00 81 1009.9
20260506043544 60 360 0.0 0.0 0.00 0.00 0.00 80 1009.7
20260506043031 61 339 0.0 0.0 0.00 0.00 0.00 80 1009.9
20260506042604 61 332 0.0 0.0 0.00 0.00 0.00 80 1009.7
20260506042035 61 332 0.0 0.0 0.00 0.00 0.00 80 1009.7
20260506041545 62 332 0.0 0.0 0.00 0.00 0.00 81 1009.6
20260506041053 62 332 0.0 0.0 0.00 0.00 0.00 80 1009.7
20260506040604 62 333 0.0 0.0 0.00 0.00 0.00 80 1009.5
20260506040033 62 339 0.0 0.0 0.00 0.00 0.00 81 1009.5
20260506035543 62 339 0.0 0.0 0.00 0.00 0.00 81 1009.3
20260506035033 63 339 0.0 0.0 0.00 0.00 0.00 81 1009.3
20260506034527 63 338 0.0 0.0 0.00 0.00 0.00 80 1009.5
20260506034057 63 334 0.0 0.0 0.00 0.00 0.00 80 1009.6
20260506033531 63 333 0.0 0.0 0.00 0.00 0.00 80 1009.3
20260506033040 63 332 0.0 0.0 0.00 0.00 0.00 80 1009.4
20260506032547 63 339 0.0 0.0 0.00 0.00 0.00 80 1009.1
20260506032039 63 332 0.0 0.0 0.00 0.00 0.00 80 1009.3
20260506031547 64 331 0.0 0.0 0.00 0.00 0.00 80 1009.0
20260506031104 64 333 0.0 0.0 0.00 0.00 0.00 79 1008.8
20260506030533 64 339 0.0 0.0 0.00 0.00 0.00 79 1008.9
20260506030042 64 333 0.0 0.0 0.00 0.00 0.00 79 1008.7
20260506025533 65 332 0.0 0.0 0.00 0.00 0.00 79 1008.7
20260506025028 65 333 0.0 0.0 0.00 0.00 0.00 79 1008.5
20260506024539 66 339 0.0 0.0 0.00 0.00 0.00 79 1008.3
20260506024047 66 336 0.0 0.0 0.00 0.00 0.00 78 1008.2
20260506023555 67 339 0.0 0.0 0.00 0.00 0.00 79 1007.8
20260506023044 67 332 0.0 0.0 0.00 0.00 0.00 78 1007.7
20260506022605 67 338 0.0 0.0 0.00 0.00 0.00 78 1007.6
20260506022032 68 338 0.0 0.0 0.00 0.00 0.00 78 1007.6
20260506021546 68 334 0.0 0.0 0.00 0.00 0.00 78 1007.4
20260506021038 68 332 0.0 0.0 0.00 0.00 0.00 78 1007.3
20260506020545 68 333 0.0 0.0 0.00 0.00 0.00 78 1007.4
20260506020036 69 338 0.0 0.0 0.00 0.00 0.00 77 1007.3
20260506015547 69 333 0.0 0.0 0.00 0.00 0.00 77 1007.0
20260506015039 69 332 0.0 0.0 0.00 0.00 0.00 77 1006.9
20260506014527 69 333 0.0 0.0 0.00 0.00 0.00 77 1006.8
20260506014039 69 332 0.0 0.0 0.00 0.00 0.00 76 1007.0
20260506013537 69 339 0.0 0.0 0.00 0.00 0.00 76 1007.0
20260506013045 70 334 0.0 0.0 0.00 0.00 0.00 76 1006.6
20260506012558 70 331 0.0 0.0 0.00 0.00 0.00 75 1006.6
20260506012043 71 331 0.0 0.0 0.00 0.00 0.00 76 1006.3
20260506011531 71 339 0.0 0.0 0.00 0.00 0.00 76 1006.5
20260506011043 72 338 0.0 0.0 0.00 0.00 0.00 75 1006.9
20260506010551 73 333 0.0 0.0 0.00 0.00 0.00 75 1005.7
20260506010039 73 338 0.0 0.0 0.00 0.00 0.00 75 1005.7
20260506005549 73 338 0.0 0.0 0.00 0.00 0.00 75 1006.1
20260506005059 74 331 0.0 0.0 0.00 0.00 0.00 74 1005.8
20260506004544 74 332 0.0 0.0 0.00 0.00 0.00 74 1005.6
20260506004041 74 331 0.0 0.0 0.00 0.00 0.00 73 1005.8
20260506003534 74 331 0.0 0.0 0.00 0.00 0.00 72 1005.8
20260506003042 74 331 0.0 0.0 0.00 0.00 0.00 72 1005.8
20260506002530 74 338 0.0 0.0 0.00 0.00 0.00 72 1005.7
20260506002041 74 338 0.0 0.0 0.00 0.00 0.00 71 1005.9
20260506001531 75 331 0.0 0.0 0.00 0.00 0.00 70 1005.6
20260506001040 75 337 0.0 0.0 0.00 0.00 0.00 70 1005.6
20260506000546 75 336 0.0 0.0 0.00 0.00 0.00 70 1005.7
20260506000035 76 337 0.0 0.0 0.00 0.00 0.00 71 1005.6
20260505235549 76 338 0.0 0.0 0.00 0.00 0.00 70 1005.6
20260505235042 76 337 0.0 0.0 0.00 0.00 0.00 70 1005.3
20260505234548 76 338 0.0 0.0 0.00 0.00 0.00 69 1005.1
20260505234041 77 338 0.0 0.0 0.00 0.00 0.00 69 1005.0
20260505233528 77 337 0.0 0.0 0.00 0.00 0.00 67 1005.0
20260505233039 79 338 0.0 0.0 0.00 0.00 0.00 66 1005.0
20260505232609 80 337 0.0 0.0 0.00 0.00 0.00 64 1005.2
20260505232037 80 337 0.0 0.0 0.00 0.00 0.00 64 1005.0
20260505231531 80 337 0.0 0.0 0.00 0.00 0.00 63 1004.8
20260505231058 81 337 0.0 0.0 0.00 0.00 0.00 62 1004.8
20260505230528 82 337 0.0 0.0 0.00 0.00 0.00 60 1004.5
20260505230038 83 336 0.0 0.0 0.00 0.00 0.00 58 1004.3
20260505225532 84 337 0.0 0.0 0.00 0.00 0.00 57 1004.2
20260505225046 84 336 0.0 0.0 0.00 0.00 0.00 55 1004.3
20260505224543 84 336 0.0 0.0 0.00 0.00 0.00 55 1004.3
20260505224049 84 337 0.0 0.0 0.00 0.00 0.00 54 1004.2
20260505223536 85 337 0.0 0.0 0.00 0.00 0.00 54 1004.1
20260505223027 85 336 0.0 0.0 0.00 0.00 0.00 53 1004.1
20260505222539 86 336 0.0 0.0 0.00 0.00 0.00 52 1004.0
20260505222046 86 336 0.0 0.0 0.00 0.00 0.00 52 1003.8
20260505221537 87 337 0.0 0.0 0.00 0.00 0.00 52 1003.7
20260505221028 87 336 0.0 0.0 0.00 0.00 0.00 53 1003.7
20260505220558 87 336 0.0 0.0 0.00 0.00 0.00 54 1003.8
20260505220035 87 334 0.0 0.0 0.00 0.00 0.00 58 1003.7
20260505215543 88 334 0.0 0.0 0.00 0.00 0.00 57 1003.7
20260505215037 88 334 0.0 0.0 0.00 0.00 0.00 57 1003.7
20260505214536 89 333 0.0 0.0 0.00 0.00 0.00 56 1003.9
20260505214045 89 335 0.0 0.0 0.00 0.00 0.00 57 1003.9
20260505213533 89 333 0.0 0.0 0.00 0.00 0.00 57 1003.9
20260505213040 89 334 0.0 0.0 0.00 0.00 0.00 58 1004.0
20260505212531 88 334 0.0 0.0 0.00 0.00 0.00 59 1003.9
20260505212043 88 333 0.0 0.0 0.00 0.00 0.00 58 1004.0
20260505211531 89 335 0.0 0.0 0.00 0.00 0.00 58 1004.0
20260505211039 89 334 0.0 0.0 0.00 0.00 0.00 57 1004.2
20260505210550 89 333 0.0 0.0 0.00 0.00 0.00 58 1004.2
20260505210036 88 335 0.0 0.0 0.00 0.00 0.00 58 1004.3
20260505205548 88 334 0.0 0.0 0.00 0.00 0.00 59 1004.1
20260505205038 88 334 0.0 0.0 0.00 0.00 0.00 60 1004.2
20260505204532 87 334 0.0 0.0 0.00 0.00 0.00 60 1004.4
20260505204040 87 334 0.0 0.0 0.00 0.00 0.00 61 1004.4
20260505203533 86 334 0.0 0.0 0.00 0.00 0.00 60 1004.3
20260505203042 87 334 0.0 0.0 0.00 0.00 0.00 60 1004.5
20260505202528 87 333 0.0 0.0 0.00 0.00 0.00 60 1004.6
20260505202040 86 335 0.0 0.0 0.00 0.00 0.00 60 1004.6
20260505201555 86 335 0.0 0.0 0.00 0.00 0.00 61 1004.6
20260505201042 86 335 0.0 0.0 0.00 0.00 0.00 60 1004.6
20260505200537 86 335 0.0 0.0 0.00 0.00 0.00 61 1004.5
20260505200026 86 329 0.0 0.0 0.00 0.00 0.00 61 1004.6
20260505195540 87 334 0.0 0.0 0.00 0.00 0.00 60 1004.6
20260505195110 87 336 0.0 0.0 0.00 0.00 0.00 60 1004.7
20260505194600 87 333 0.0 0.0 0.00 0.00 0.00 59 1004.7
20260505194048 87 334 0.0 0.0 0.00 0.00 0.00 61 1004.7
20260505193545 87 334 0.0 0.0 0.00 0.00 0.00 60 1004.6
20260505193033 86 335 0.0 0.0 0.00 0.00 0.00 63 1004.5
20260505192542 86 335 0.0 0.0 0.00 0.00 0.00 61 1004.5
20260505192032 85 333 0.0 0.0 0.00 0.00 0.00 63 1004.6
20260505191610 85 335 0.0 0.0 0.00 0.00 0.00 64 1004.5
20260505191101 85 333 0.0 0.0 0.00 0.00 0.00 65 1004.4
20260505190548 85 334 0.0 0.0 0.00 0.00 0.00 66 1004.4
20260505190042 85 333 0.0 0.0 0.00 0.00 0.00 67 1004.4
20260505185531 85 336 0.0 0.0 0.00 0.00 0.00 67 1004.4
20260505185037 85 333 0.0 0.0 0.00 0.00 0.00 67 1004.6
20260505184545 84 333 0.0 0.0 0.00 0.00 0.00 68 1004.7
20260505184042 84 335 0.0 0.0 0.00 0.00 0.00 69 1004.6
20260505183531 83 335 0.0 0.0 0.00 0.00 0.00 69 1004.7
20260505183037 83 330 0.0 0.0 0.00 0.00 0.00 70 1004.6
20260505182535 83 334 0.0 0.0 0.00 0.00 0.00 70 1004.7
20260505182043 82 333 0.0 0.0 0.00 0.00 0.00 70 1004.8
20260505181536 82 335 0.0 0.0 0.00 0.00 0.00 70 1004.9
20260505181044 83 335 0.0 0.0 0.00 0.00 0.00 69 1004.8
20260505180532 83 334 0.0 0.0 0.00 0.00 0.00 69 1004.8
20260505180039 83 336 0.0 0.0 0.00 0.00 0.00 70 1004.7
20260505175530 82 333 0.0 0.0 0.00 0.00 0.00 70 1004.7
20260505175043 82 335 0.0 0.0 0.00 0.00 0.00 72 1004.8
20260505174531 81 335 0.0 0.0 0.00 0.00 0.00 71 1004.7
20260505174038 82 333 0.0 0.0 0.00 0.00 0.00 71 1004.8
20260505173545 81 335 0.0 0.0 0.00 0.00 0.00 72 1004.8
20260505173039 81 335 0.0 0.0 0.00 0.00 0.00 73 1004.7
20260505172529 80 334 0.0 0.0 0.00 0.00 0.00 74 1004.7
20260505172049 80 334 0.0 0.0 0.00 0.00 0.00 74 1004.7
20260505171544 79 336 0.0 0.0 0.00 0.00 0.00 74 1004.9
20260505171035 79 334 0.0 0.0 0.00 0.00 0.00 75 1004.6
20260505170544 79 336 0.0 0.0 0.00 0.00 0.00 75 1005.2
20260505170051 79 335 0.0 0.0 0.00 0.00 0.00 75 1004.8
20260505165602 79 336 0.0 0.0 0.00 0.00 0.00 75 1004.9
20260505165033 78 336 0.0 0.0 0.00 0.00 0.00 76 1004.8
20260505164541 78 334 0.0 0.0 0.00 0.00 0.00 76 1004.7
20260505164027 78 336 0.0 0.0 0.00 0.00 0.00 76 1005.3
20260505163537 78 336 0.0 0.0 0.00 0.00 0.00 75 1004.2
20260505163029 78 335 0.0 0.0 0.00 0.00 0.00 76 1004.7
20260505162542 78 335 0.0 0.0 0.00 0.00 0.00 75 1005.3
20260505162031 78 336 0.0 0.0 0.00 0.00 0.00 75 1005.1
20260505161541 78 336 0.0 0.0 0.00 0.00 0.00 75 1004.6
20260505161055 78 336 0.0 0.0 0.00 0.00 0.00 75 1004.7
20260505160541 78 335 0.0 0.0 0.00 0.00 0.00 75 1004.6
20260505153032 77 336 0.0 0.0 0.00 0.00 0.00 78 1004.4
20260505152559 77 336 0.0 0.0 0.00 0.00 0.00 78 1004.4
20260505152047 77 335 0.0 0.0 0.00 0.00 0.00 78 1004.7
20260505151536 77 335 0.0 0.0 0.00 0.00 0.00 78 1004.8
20260505151030 77 336 0.0 0.0 0.00 0.00 0.00 79 1004.7
20260505150544 76 336 0.0 0.0 0.00 0.00 0.00 79 1004.8
20260505140532 74 336 0.0 0.0 0.00 0.00 0.00 82 1004.5
20260505125041 72 335 0.0 0.0 0.00 0.00 0.00 85 1004.4
20260505124531 72 336 0.0 0.0 0.00 0.00 0.00 85 1004.3